Flag for Germany Weather past 2 weeks in Falkensee, Brandenburg, Germany

Now
55 °F

Fog.


Feels Like: 55 °F
Forecast: 51 / 71 °F
Wind: 2 mph from Northeast

Location: Berlin-Tegel


UV Index: 3 (Moderate)

Visibility: N/A


Pressure: 30.09 "Hg

Humidity: 94%

Dew point: 54 °F

Location of FalkenseeLocation

Historic Weather in Falkensee

°F

Falkensee temperature yesterday

Maximum temperature yesterday: 66 °F (at 6:50 PM)
Minimum temperature yesterday: 48 °F (at 2:20 AM)
Average temperature yesterday: 56 °F

Past Weeks' High & Low Weather Summary

 TemperatureHumidityPressure
High70 °F (Apr 19, 3:50 PM)100% (Apr 12, 3:20 AM)30.45 "Hg (Apr 12, 3:20 AM)
Low34 °F (Apr 16, 5:20 AM)26% (Apr 16, 3:20 PM)29.68 "Hg (Apr 14, 8:20 AM)
Average52 °F71%30.01 "Hg
* Reported Apr 9 11:20 PM — Apr 24 11:50 PM, Falkensee, Weather by CustomWeather, © 2014

Note: Actual official high and low records may vary slightly from our data, if they occured in-between our weather recording intervals... More about our weather records

Advertising

Historic Weather Conditions — Data for Previous 24 hours

 ConditionsComfort  
Time TempWeatherWind HumidityBarometerVisibility
11:50 PM
Apr 24
55 °FFog.1 mph94%30.09 "HgN/A
11:20 PM55 °FFog.2 mph88%30.09 "HgN/A
10:50 PM57 °FClear.1 mph88%30.09 "Hg10 mi
10:20 PM59 °FClear.2 mph82%30.09 "Hg10 mi
9:50 PM59 °FPassing clouds.3 mph82%30.09 "HgN/A
9:20 PM61 °FPassing clouds.5 mph77%30.09 "HgN/A
8:50 PM61 °FScattered clouds.6 mph77%30.09 "HgN/A
8:20 PM63 °FScattered clouds.5 mph73%30.09 "HgN/A
7:50 PM63 °FScattered clouds.6 mph73%30.09 "HgN/A
7:20 PM64 °FScattered clouds.9 mph68%30.09 "HgN/A
6:50 PM66 °FPassing clouds.5 mph64%30.09 "HgN/A
6:20 PM64 °FPassing clouds.7 mph68%30.09 "HgN/A
5:50 PM64 °FScattered clouds.5 mph68%30.09 "HgN/A
5:20 PM64 °FPartly sunny.6 mph68%30.12 "HgN/A
4:50 PM64 °FScattered clouds.2 mph64%30.12 "HgN/A
4:20 PM64 °FScattered clouds.5 mph68%30.12 "HgN/A
3:50 PM63 °FPartly sunny.2 mph73%30.12 "HgN/A
3:20 PM63 °FScattered clouds.1 mph73%30.12 "HgN/A
2:50 PM63 °FPartly sunny.2 mph73%30.15 "HgN/A
2:20 PM61 °FPartly sunny.5 mph77%30.15 "HgN/A
1:50 PM59 °FOvercast.2 mph82%30.15 "HgN/A
1:20 PM59 °FOvercast.2 mph77%30.15 "HgN/A
12:50 PM57 °FOvercast.5 mph82%30.15 "HgN/A
12:20 PM57 °FLow clouds.3 mph82%30.18 "HgN/A
11:50 AM55 °FMostly cloudy.3 mph88%30.18 "Hg6 mi
11:20 AM55 °FLow clouds.No wind88%30.18 "Hg4 mi
10:50 AM54 °FFog.1 mph94%30.18 "Hg3 mi
10:20 AM52 °FFog.1 mph100%30.18 "Hg2 mi
9:20 AM50 °FFog.2 mph100%30.18 "Hg1 mi
8:50 AM50 °FFog.3 mph100%30.18 "Hg1 mi
8:20 AM50 °FFog.3 mph100%30.18 "Hg1 mi
7:50 AM50 °FFog.3 mph100%30.18 "Hg1 mi
7:20 AM48 °FFog.5 mph100%30.15 "Hg1 mi
6:50 AM48 °FFog.2 mph100%30.15 "Hg1 mi
6:20 AM48 °FFog.1 mph100%30.15 "Hg1 mi
5:50 AM48 °FFog.2 mph100%30.15 "Hg1 mi
5:20 AM48 °FFog.3 mph100%30.15 "Hg1 mi
4:50 AM48 °FFog.5 mph100%30.15 "Hg1 mi
4:20 AM48 °FFog.5 mph100%30.15 "Hg1 mi
3:50 AM48 °FLow clouds.6 mph94%30.15 "Hg4 mi
3:20 AM48 °FPassing clouds.7 mph94%30.15 "HgN/A
2:50 AM48 °FPassing clouds.5 mph94%30.15 "HgN/A
2:20 AM48 °FPassing clouds.6 mph94%30.15 "HgN/A
1:50 AM50 °FPassing clouds.6 mph88%30.15 "HgN/A
1:20 AM50 °FPassing clouds.5 mph94%30.15 "HgN/A
Weather by CustomWeather, © 2014

See weather overview